Location: Gradaro
(45.0833°N, 10.8833°E)
Time: 09:48:28
(UTC+00:00)

Cosmos 405 Rocket - Pass Details

Date: 29 November 2020
Orbit: 489 x 554 km, 81.3° (Epoch: 23 January)

Event Time Altitude Azimuth Distance (km) Brightness Sun altitude
Rises 05:36:55 0° 211° (SSW) 2,555 6.1 -9.7°
Reaches altitude 10° 05:39:09 10° 222° (SW) 1,683 5.1 -9.3°
Maximum altitude 05:42:29 32° 287° (WNW) 881 3.3 -8.8°
Drops below altitude 10° 05:45:53 10° 351° (N) 1,718 5.0 -8.2°
Sets 05:48:12 0° 2° (N) 2,618 6.1 -7.9°
